Regional Weather Roundup
Issued by NWS

Home | Current Version | Previous Version | Text Only | Print | Product List | Glossary On
Versions: 1 2 3 4 5 6 7 8 9 10 11 12 13 14 15 16 17 18 19 20 21 22 23 24 25 26 27 28 29 30 31 32 33 34 35 36 37 38 39 40 41 42 43 44 45 46 47 48 49 50
000
ASUS44 KMEG 231910
RWRTN
TENNESSEE HOURLY STATE WEATHER ROUNDUP
NATIONAL WEATHER SERVICE MEMPHIS TN
200 PM CDT MON OCT 23 2017

TNZ002-004-019-021-049-052-054-088>092-232000-
WEST TENNESSEE

CITY           SKY/WX    TMP DP  RH WIND       PRES   REMARKS
MEMPHIS INTL   MOSUNNY   69  44  40 NW10G20   29.96F
NWS MEMPHIS      N/A     66 N/A N/A MISG        N/A
JACKSON        MOSUNNY   64  48  56 NW14G23   29.94F
DYERSBURG        N/A     65  47  52 W9        29.93F
SOMERVILLE     SUNNY     66  43  42 W6G14     29.94F
COVINGTON      SUNNY     66  46  48 W7        29.94F
UNION CITY     CLOUDY    66  43  42 N12       29.91F
BOLIVAR        SUNNY     64  46  52 VRB6G14   29.95F
PARIS          PTSUNNY   59  52  77 W9G18     29.90F
HUNTINGDON     PTSUNNY   61  50  67 W12       29.91F
LEXINGTON      PTSUNNY   59  48  67 NW10G21   29.93F
SELMER         MOSUNNY   61  48  63 VRB7G18   29.95F
SAVANNAH       CLOUDY    61  52  72 NW8G15    29.94F
$$

TNZ008-025-027-028-033-062-065-066-232000-
NORTH MIDDLE TENNESSEE

CITY           SKY/WX    TMP DP  RH WIND       PRES   REMARKS
NASHVILLE      LGT RAIN  58  53  84 W13G20    29.87S
PORTLAND       PTSUNNY   57  54  88 W10G18    29.83F FOG
CLARKSVILLE    LGT RAIN  56  52  86 W15G23    29.86F
SMYRNA         CLOUDY    59  54  83 W14       29.88S
COOKEVILLE     CLOUDY    61  55  82 SW13G20   29.81F
CROSSVILLE     CLOUDY    56  54  93 W22G31    29.83S
$$

TNZ061-075-076-078-094-096-097-232000-
SOUTH MIDDLE TENNESSEE

CITY           SKY/WX    TMP DP  RH WIND       PRES   REMARKS
FAYETTEVILLE   CLOUDY    57  54  88 W12G22    29.90S
TULLAHOMA      CLOUDY    57  54  88 W14       29.89S
WINCHESTER     PTSUNNY   61  54  77 W12         N/A
COLUMBIA       CLOUDY    59  52  77 W10G22    29.89S
SHELBYVILLE    CLOUDY    57  54  88 W15       29.88S
$$

TNZ017-018-042-046-047-232000-
NORTHEAST TENNESSEE

CITY           SKY/WX    TMP DP  RH WIND       PRES   REMARKS
TRI CITIES     HVY RAIN  58  58 100 N7        29.85F FOG
ELIZABETHTON   FOG       57  55  94 CALM      29.86S VSB 1/2
$$

TNZ012-013-036-069-073-074-232000-
CENTRAL EAST TENNESSEE

CITY           SKY/WX    TMP DP  RH WIND       PRES   REMARKS
KNOXVILLE      PTSUNNY   66  64  93 SW13      29.77F
OAK RIDGE      PTSUNNY   66  63  90 S6        29.78F
DOWNTOWN KNOXV CLOUDY    68  63  83 VRB7G14   29.79F
GATLINBURG     PTSUNNY   66  61  82 VRB5      29.80S
MORRISTOWN     MOSUNNY   61  61 100 S5        29.79F
JACKSBORO      PTSUNNY   64  59  82 VRB7      29.81F
$$

TNZ083-085-099-232000-
SOUTHEAST TENNESSEE

CITY           SKY/WX    TMP DP  RH WIND       PRES   REMARKS
CHATTANOOGA    MOSUNNY   70  51  51 W20G31    29.84S
DAYTON         CLOUDY    68  61  77 SW12      29.78F
$$

SKY/WX REPORTED AS FAIR MEANS FEW OR NO CLOUDS BELOW
12 THOUSAND FEET.





USA.gov is the U.S. government's official web portal to all federal, state and local government web resources and services.